Regional Weather Roundup
Issued by NWS

Home | Current Version | Previous Version | Graphics & Text | Print | Product List | Glossary On
Versions: 1 2 3 4 5 6 7 8 9 10 11 12 13 14 15 16 17 18 19 20 21 22 23 24 25 26 27 28 29 30 31 32 33 34 35 36 37 38 39 40 41 42 43 44 45 46 47 48 49 50
000
ASUS43 KLOT 041900
RWRIL

ILLINOIS REGIONAL WEATHER ROUNDUP
NATIONAL WEATHER SERVICE CHICAGO/ROMEOVILLE IL
200 PM CDT SAT JUL 04 2015

NOTE: "FAIR" INDICATES FEW OR NO CLOUDS BELOW 12,000 FEET WITH NO
SIGNIFICANT WEATHER AND/OR OBSTRUCTIONS TO VISIBILITY.

* THESE STATIONS ARE NOT UNDER NWS QUALITY CONTROL. THEY ALSO MAY NOT
  REPORT WEATHER SUCH AS PRECIPITATION OR FOG.

ILZ001-002-007-009-015-016-024-042000-
NORTHWEST ILLINOIS

CITY           SKY/WX    TMP DP  RH WIND       PRES   REMARKS
MOLINE         SUNNY     79  59  50 SW6       30.01S HX  80
STERLING*      SUNNY     81  63  54 W5        30.01S HX  82
$$

ILZ003-004-008-010-011-017-018-042000-
NORTH CENTRAL ILLINOIS

CITY           SKY/WX    TMP DP  RH WIND       PRES   REMARKS
ROCKFORD       MOSUNNY   80  60  50 W3        30.02S HX  81
$$

ILZ005-006-012>014-019>023-042000-
NORTHEAST ILLINOIS

CITY           SKY/WX    TMP DP  RH WIND       PRES   REMARKS
CHICAGO-OHARE  MOSUNNY   80  56  43 CALM      30.00S HX  80
CHICAGO-MIDWAY MOSUNNY   82  56  40 VRB6      29.99F HX  82
AURORA         SUNNY     80  58  46 SW7       30.02S HX  80
WAUKEGAN       SUNNY     76  59  55 SE9       30.00S
DUPAGE AIRPORT SUNNY     79  55  43 SW9       30.00F
WHEELING       SUNNY     79  55  43 VRB6      30.01S
NORTHERLY ISL    N/A     70  58  65 E5          N/A
$$

LMZ740>746-042000-
SOUTHERN LAKE MICHIGAN

STATION/POSITION SKY/WX   TEMP    WIND        PRES    VSBY  WAVE
                          AIR SEA DIR/SP/G                  HT/PER
                          (F)     (DEG/KT/KT) (MB)    (MI)  (FT/S)
HARRISON CRIB              67     110/  8/  9   N/A
BURNHAM HARBOR             70      70/  3/  5   N/A
CALUMET HARBOR             71      70/  8/ 10   N/A
BURNS HARBOR               70      40/  5/  6 1016.9F
MICHIGAN CITY              70     310/  4/  4   N/A
MICHIGAN CITY 6N           68 66  330/  2/  4   N/A           0
ST. JOSEPH                 65 65                N/A           0
$$

ILZ025>027-034>036-040-047-049-050-058-095>099-042000-
WEST-CENTRAL ILLINOIS

CITY           SKY/WX    TMP DP  RH WIND       PRES   REMARKS
QUINCY         SUNNY     80  59  48 S7        30.02S HX  81
$$

ILZ028>032-037-038-041>044-048-051>054-059>061-042000-
CENTRAL ILLINOIS

CITY           SKY/WX    TMP DP  RH WIND       PRES   REMARKS
DECATUR        MOSUNNY   78  60  53 E5        30.03S
PEORIA         MOSUNNY   80  60  50 S7        30.02F HX  81
SPRINGFIELD    MOSUNNY   81  62  52 W3        30.03S HX  82
TAYLORVILLE    NOT AVBL
$$

ILZ033-039-045-046-055>057-062-063-042000-
EAST-CENTRAL ILLINOIS

CITY           SKY/WX    TMP DP  RH WIND       PRES   REMARKS
CHAMPAIGN      PTSUNNY   77  60  55 SW5       30.03F
MATTOON        PTSUNNY   76  61  59 CALM      30.02S
$$

ILZ079-100>102-042000-
SOUTHWEST ILLINOIS

CITY           SKY/WX    TMP DP  RH WIND       PRES   REMARKS
BELLEVILLE     MOSUNNY   80  64  57 NE5       30.00F HX  81
CAHOKIA*       PTSUNNY   82  62  50 NE7       30.01F HX  83
$$

ILZ064>066-069>071-074>076-080>082-084>086-088>090-092>094-042000-
SOUTH-CENTRAL ILLINOIS

CITY           SKY/WX    TMP DP  RH WIND       PRES   REMARKS
CARBONDALE     MOSUNNY   81  65  58 E6        30.00F HX  83
MARION         MOSUNNY   81  66  61 N5        30.01F HX  83
MT. VERNON     MOSUNNY   81  63  54 CALM      30.01F HX  82
$$

ILZ067-068-072-073-078-083-087-091-042000-
SOUTHEAST ILLINOIS

CITY           SKY/WX    TMP DP  RH WIND       PRES   REMARKS
LAWRENCEVILLE  PTSUNNY   80  65  59 NW6       30.01F HX  82
$$

ABBREVIATIONS USED IN REMARKS
   TC - TEMPERATURE IN CELSIUS
  WCI - WIND CHILL INDEX
   HX - HEAT INDEX
  VSB - VISIBILITY
$$




USA.gov is the U.S. government's official web portal to all federal, state and local government web resources and services.